Regional Weather Roundup
Issued by NWS

Home | Current Version | Previous Version | Graphics & Text | Print | Product List | Glossary On
Versions: 1 2 3 4 5 6 7 8 9 10 11 12 13 14 15 16 17 18 19 20 21 22 23 24 25 26 27 28 29 30 31 32 33 34 35 36 37 38 39 40 41 42 43 44 45 46 47 48 49 50
600
ASUS43 KFSD 061102
RWRSD

WEATHER ROUNDUP FOR SOUTH DAKOTA
NATIONAL WEATHER SERVICE SIOUX FALLS SD
500 AM CST TUE DEC 06 2016

NOTE: "FAIR" INDICATES FEW OR NO CLOUDS BELOW 12,000 FEET WITH NO
SIGNIFICANT WEATHER AND/OR OBSTRUCTIONS TO VISIBILITY.


SDZ001>005-009-010-012>017-061200-
NORTHWEST AND NORTH CENTRAL SOUTH DAKOTA

CITY           SKY/WX    TMP DP  RH WIND       PRES   REMARKS
BUFFALO          N/A      7   0  73 NW28G39   29.85R WCI -16
FAITH            N/A      7   4  87 W31G44    29.88S WCI -17
MOBRIDGE       LGT SNOW  13   7  77 NW31G48   29.78R WCI  -9
$$

SDZ012>016-024>037-041>051-057-063-072>074-061200-
SOUTHWEST AND SOUTH CENTRAL SOUTH DAKOTA

CITY           SKY/WX    TMP DP  RH WIND       PRES   REMARKS
RAPID CTY ARPT CLEAR     11   2  67 N13       29.93R WCI  -4
PIERRE         CLOUDY    13   5  70 W24G39    29.91R WCI  -7
CUSTER         CLEAR      9  -2  61 W16G25    29.78F WCI  -8
ELLSWORTH AFB  CLEAR     12   2  63 N14       29.91R WCI  -3
PHILIP         CLEAR     12   4  70 W24G31    29.97R WCI  -8
PINE RIDGE     CLEAR     12   5  73 W13G21    29.95R WCI  -3
SPEARFISH      FAIR      12   1  62 W18G26    29.91F WCI  -5
WINNER         FAIR      16   6  65 W17G29    29.94S WCI   0
$$

SDZ004>011-016>023-039-040-061200-
NORTHEAST SOUTH DAKOTA

CITY           SKY/WX    TMP DP  RH WIND       PRES   REMARKS
ABERDEEN       LGT SNOW  16   9  74 W28G39    29.68S WCI  -4
WATERTOWN      FLURRIES  14   8  77 W25G36    29.68S WCI  -5
SISSETON         N/A     18  11  74 W25G35    29.58F WCI   0
$$

SDZ017-020-022-023-036>040-048>070-061200-
SOUTHEAST SOUTH DAKOTA

CITY           SKY/WX    TMP DP  RH WIND       PRES   REMARKS
SIOUX FALLS    PTCLDY    16  10  77 W14G21    29.85S WCI   2
HURON          PTCLDY    14   7  73 W24G33    29.85S WCI  -5
CHAMBERLAIN    CLEAR     17   9  72 W21G30    29.91S WCI   0
MITCHELL       FLURRIES  18  12  77 W24G32    29.89S WCI   0
YANKTON        CLEAR     18   7  62 W18       29.91F WCI   2
$$

ABBREVIATIONS USED IN REMARKS
   TC - TEMPERATURE IN CELSIUS
  WCI - WIND CHILL INDEX
   HX - HEAT INDEX
  VSB - VISIBILITY





USA.gov is the U.S. government's official web portal to all federal, state and local government web resources and services.